Location: Pinawa
(50.1500°N, 95.8830°W)
Time: 17:32:52
(UTC-05:00)

Amateur Radio Satellites - All Passes

Search period start: 23 May 2017 17:02
Search period end: 24 May 2017 17:02
Location: Pinawa, 50.1500°N, 95.8830°W

Satellite Date Start Highest point End Downlink Frequencies (MHz)
Time Altitude Azimuth
XW-2D 23 May 17:06:54 17:08:19 12° 58° (ENE) 17:09:44 145.860 - 145.880
CUBESAT XI-V 23 May 17:08:35 17:12:10 21° 91° (E) 17:15:43 437.345
XW-2B 23 May 17:14:11 17:16:05 13° 59° (ENE) 17:18:00 145.730 - 145.750
ITUPSAT 1 23 May 17:19:36 17:24:15 48° 292° (WNW) 17:28:53 437.325
XW-2C 23 May 17:26:50 17:29:26 18° 62° (ENE) 17:32:03 145.795 - 145.815
XW-2F 23 May 17:28:33 17:31:08 18° 62° (ENE) 17:33:44 145.980 - 146.000
NUDT-PHONESAT 23 May 17:38:31 17:41:04 18° 62° (ENE) 17:43:40 437.300
KAITUO 1B 23 May 17:41:51 17:44:38 20° 63° (ENE) 17:47:27 145.475/437.950
NO-84 23 May 17:44:58 17:48:05 26° 225° (SW) 17:50:58 435.350 FM
CUTE-I 23 May 17:45:57 17:50:41 34° 63° (ENE) 17:55:26 437.470
HO-68 23 May 17:50:11 17:55:25 22° 48° (NE) 18:00:39 435.675
KKS-1 23 May 17:50:24 17:54:37 41° 99° (E) 17:58:48 437.445
BEESAT 23 May 17:56:07 18:00:00 25° 299° (WNW) 18:03:52 436.000
LilacSat-2 23 May 17:59:47 18:03:21 38° 69° (ENE) 18:06:58 437.200
MOZHAYETS 4 23 May 18:09:05 18:13:02 28° 297° (WNW) 18:16:58
DOVE 4 23 May 18:12:47 18:17:27 87° 68° (ENE) 18:21:52 437.250
AO-7 23 May 18:18:55 18:22:49 14° 278° (W) 18:26:45 .
CUTE 1.7 + AOD 2 23 May 18:22:35 18:24:50 14° 57° (ENE) 18:27:04 437.475
STARS 23 May 18:31:07 18:35:22 47° 100° (E) 18:39:36 437.465
XW-2D 23 May 18:38:05 18:41:54 85° 257° (WSW) 18:45:46 145.860 - 145.880
CUBESAT XI-V 23 May 18:45:17 18:49:52 54° 290° (WNW) 18:54:23 437.345
XW-2B 23 May 18:45:57 18:49:46 72° 259° (WSW) 18:53:37 145.730 - 145.750
XW-2C 23 May 18:59:35 19:03:18 50° 260° (W) 19:07:04 145.795 - 145.815
XW-2F 23 May 19:01:14 19:04:56 50° 260° (W) 19:08:41 145.980 - 146.000
XW-2A 23 May 19:02:36 19:05:14 22° 66° (ENE) 19:07:53 145.665 - 145.685
NUDT-PHONESAT 23 May 19:11:05 19:14:41 46° 261° (W) 19:18:19 437.300
KAITUO 1B 23 May 19:14:48 19:18:24 42° 262° (W) 19:22:03 145.475/437.950
SEEDS 23 May 19:16:46 19:20:24 28° 65° (ENE) 19:24:04 437.485
CUTE-I 23 May 19:25:38 19:30:39 42° 262° (W) 19:35:43 437.470
KKS-1 23 May 19:27:17 19:31:01 27° 297° (WNW) 19:34:43 437.445
Oscar 11 23 May 19:30:44 19:31:23 10° 53° (NE) 19:32:01 .
LilacSat-2 23 May 19:34:46 19:37:46 21° 267° (W) 19:40:48 437.200
HO-68 23 May 19:34:59 19:42:09 80° 70° (ENE) 19:49:23 435.675
AO-73 23 May 19:50:38 19:53:28 18° 59° (ENE) 19:56:20 145.935
DOVE 4 23 May 19:53:48 19:55:42 12° 272° (W) 19:57:35 437.250
CUTE 1.7 + AOD 2 23 May 19:55:45 20:00:03 85° 260° (W) 20:04:23 437.475
CUBEBUG 2 23 May 19:58:45 20:02:46 52° 71° (ENE) 20:06:55 437.445
ZACube-1 23 May 20:01:53 20:05:16 24° 63° (ENE) 20:08:42 437.345
STARS 23 May 20:07:59 20:11:28 24° 298° (WNW) 20:14:57 437.465
UWE-3 23 May 20:16:12 20:20:15 50° 70° (ENE) 20:24:24 435.000/436.395/437.385
STRAND 1 23 May 20:23:00 20:27:46 37° 97° (E) 20:32:31 437.568
AAUSAT CUBESAT 2 23 May 20:26:03 20:30:12 67° 74° (ENE) 20:34:23 437.432
PCSat 23 May 20:29:52 20:34:50 38° 114° (ESE) 20:39:49 145.827
XW-2A 23 May 20:34:54 20:37:52 29° 264° (W) 20:40:52 145.665 - 145.685
SEEDS 23 May 20:52:05 20:56:00 35° 264° (W) 20:59:57 437.485
Oscar 11 23 May 21:02:22 21:06:39 65° 73° (ENE) 21:11:01 .
DELFI C3 23 May 21:15:57 21:19:23 28° 66° (ENE) 21:22:48 145.870
HO-68 23 May 21:25:00 21:30:40 25° 270° (W) 21:36:22 435.675
AO-73 23 May 21:25:04 21:29:15 63° 259° (WSW) 21:33:33 145.935
CUTE 1.7 + AOD 2 23 May 21:35:41 21:36:34 11° 275° (W) 21:37:29 437.475
CUBEBUG 2 23 May 21:36:53 21:39:46 18° 270° (W) 21:42:42 437.445
ZACube-1 23 May 21:37:18 21:41:19 43° 262° (W) 21:45:28 437.345
M-CUBED/EXP-1 PRIME 23 May 21:51:01 21:54:11 35° 104° (ESE) 21:57:14 437.505
UWE-3 23 May 21:53:59 21:57:02 19° 270° (W) 22:00:08 435.000/436.395/437.385
Tancredo 1 23 May 21:55:56 21:57:36 14° 139° (SE) 21:59:16 437.200
ISS 23 May 21:56:43 21:57:31 11° 135° (SE) 21:58:18 437.550
STRAND 1 23 May 22:02:15 22:06:57 37° 296° (WNW) 22:11:38 437.568
AAUSAT CUBESAT 2 23 May 22:03:45 22:06:08 15° 272° (W) 22:08:30 437.432
EO-88 23 May 22:07:47 22:11:25 68° 73° (ENE) 22:15:05 145.990 - 145.960
PCSat 23 May 22:12:56 22:18:09 47° 315° (NW) 22:23:26 145.827
ESTCUBE 1 23 May 22:25:04 22:27:48 16° 57° (ENE) 22:30:33 437.505/2401.250
Oscar 11 23 May 22:40:34 22:43:16 16° 271° (W) 22:45:57 .
FO-29 23 May 22:42:14 22:47:43 32° 95° (E) 22:53:46 435.910
DELFI C3 23 May 22:50:28 22:54:05 32° 264° (W) 22:57:42 145.870
TIGRISAT 23 May 22:59:00 23:03:08 33° 96° (E) 23:07:19 435.000
PRISM 23 May 23:01:14 23:05:08 42° 99° (E) 23:09:00 437.425
LO-87 23 May 23:02:04 23:05:25 41° 70° (ENE) 23:08:47 145.935 - 145.965
M-CUBED/EXP-1 PRIME 23 May 23:25:59 23:28:28 19° 304° (WNW) 23:30:53 437.505
UNISAT 6 23 May 23:29:32 23:34:05 68° 102° (ESE) 23:38:41 437.425
Tancredo 1 23 May 23:29:50 23:32:53 60° 157° (SSE) 23:35:56 437.200
ISS 23 May 23:30:12 23:33:22 47° 154° (SSE) 23:36:34 437.550
VELOX 1 23 May 23:34:23 23:37:39 20° 60° (ENE) 23:40:54 145.980
EO-88 23 May 23:44:16 23:45:33 11° 272° (W) 23:46:50 145.990 - 145.960
SPROUT 23 May 23:52:31 23:56:05 27° 64° (ENE) 23:59:39 437.525
POLYITAN 1 23 May 23:54:04 23:54:20 10° 86° (E) 23:54:36 437.675
PCSat 23 May 23:59:19 00:02:55 18° 339° (NNW) 00:06:32 145.827
ESTCUBE 1 23 May 23:59:28 00:04:02 82° 257° (WSW) 00:08:36 437.505/2401.250
QB50P2 24 May 00:00:55 00:03:00 13° 88° (E) 00:05:04 145.880/145.840
DUCHIFAT 1 24 May 00:04:28 00:05:25 11° 86° (E) 00:06:23 145.980
SO-50 24 May 00:13:38 00:18:05 53° 124° (SE) 00:22:31 436.795
UKube-1 24 May 00:19:52 00:22:35 17° 58° (ENE) 00:25:18 .
DX 1 24 May 00:20:13 00:23:35 22° 61° (ENE) 00:26:56 434.975-435.025
YUBILEINY 24 May 00:26:09 00:31:16 17° 71° (ENE) 00:36:24 435.215
FO-29 24 May 00:27:06 00:33:02 57° 291° (WNW) 00:39:43 435.910
AIST 2D 24 May 00:30:34 00:34:00 42° 98° (E) 00:37:25 435.315
TIGRISAT 24 May 00:35:43 00:39:49 34° 294° (WNW) 00:43:59 435.000
LO-87 24 May 00:36:39 00:39:04 17° 268° (W) 00:41:28 145.935 - 145.965
PRISM 24 May 00:36:59 00:40:12 23° 298° (WNW) 00:43:24 437.425
EO-79 24 May 00:38:02 00:41:42 27° 95° (E) 00:45:22 145.935-145.965
50 SAT 24 May 00:39:29 00:42:42 37° 70° (ENE) 00:45:56 437.505
Tancredo 1 24 May 01:05:38 01:08:41 64° 356° (N) 01:11:46 437.200
ISS 24 May 01:06:32 01:09:50 70° 353° (N) 01:13:07 437.550
UNISAT 6 24 May 01:07:12 01:10:20 19° 301° (WNW) 01:13:32 437.425
VELOX 1 24 May 01:09:23 01:13:44 57° 259° (WSW) 01:18:07 145.980
NANOSAT C BR1 24 May 01:25:02 01:29:17 73° 103° (ESE) 01:33:31 145.865
POLYITAN 1 24 May 01:26:32 01:30:49 83° 102° (ESE) 01:35:06 437.675
SPROUT 24 May 01:27:55 01:31:52 37° 263° (W) 01:35:49 437.525
QB50P2 24 May 01:35:02 01:39:19 77° 287° (WNW) 01:43:35 145.880/145.840
DUCHIFAT 1 24 May 01:37:29 01:41:45 88° 109° (ESE) 01:45:59 145.980
ESTCUBE 1 24 May 01:40:22 01:41:35 11° 275° (W) 01:42:47 437.505/2401.250
PCSat 24 May 01:45:57 01:48:36 13° 5° (N) 01:51:14 145.827
Oscar 19 24 May 01:50:23 01:53:59 19° 89° (E) 01:57:34 437.125/150
BEESAT 24 May 01:53:05 01:56:06 17° 56° (NE) 01:59:07 436.000
UKube-1 24 May 01:53:48 01:58:06 72° 256° (WSW) 02:02:27 .
SO-50 24 May 01:54:39 01:58:46 32° 325° (NW) 02:02:53 436.795
DX 1 24 May 01:55:15 01:59:29 50° 260° (W) 02:03:44 434.975-435.025
MOZHAYETS 4 24 May 02:04:15 02:05:51 12° 53° (NE) 02:07:27
AIST 2D 24 May 02:04:28 02:06:57 18° 297° (WNW) 02:09:25 435.315
BUGSAT 1 24 May 02:08:17 02:12:22 62° 102° (ESE) 02:16:28 437.445
50 SAT 24 May 02:13:19 02:15:45 18° 267° (W) 02:18:11 437.505
EO-79 24 May 02:13:39 02:17:32 35° 293° (WNW) 02:21:25 145.935-145.965
FO-29 24 May 02:14:16 02:17:05 14° 311° (NW) 02:20:02 435.910
YUBILEINY 24 May 02:17:47 02:26:25 71° 94° (E) 02:35:09 435.215
Tancredo 1 24 May 02:41:29 02:44:35 87° 201° (SSW) 02:47:39 437.200
Gurwin Techsat 1B 24 May 02:41:58 02:46:44 32° 95° (E) 02:51:27 435.225
RS-15 24 May 02:42:01 02:52:49 40° 108° (ESE) 03:03:48 29.354- 29.394
ISS 24 May 02:43:10 02:46:28 80° 11° (NNE) 02:49:46 437.550
ITUPSAT 1 24 May 02:53:04 02:57:39 48° 68° (ENE) 03:02:16 437.325
NANOSAT C BR1 24 May 03:01:56 03:04:30 16° 302° (WNW) 03:07:01 145.865
POLYITAN 1 24 May 03:03:43 03:06:02 14° 303° (WNW) 03:08:20 437.675
QB50P2 24 May 03:12:57 03:14:23 11° 305° (NW) 03:15:48 145.880/145.840
DUCHIFAT 1 24 May 03:14:44 03:16:48 13° 303° (WNW) 03:18:53 145.980
KKS-1 24 May 03:20:00 03:21:12 11° 53° (NE) 03:22:24 437.445
BEESAT 24 May 03:28:30 03:33:16 83° 255° (WSW) 03:38:05 436.000
Oscar 19 24 May 03:28:41 03:33:52 72° 289° (WNW) 03:39:00 437.125/150
PCSat 24 May 03:29:36 03:34:01 24° 31° (NNE) 03:38:24 145.827
MOZHAYETS 4 24 May 03:37:35 03:42:09 68° 73° (ENE) 03:46:47
SO-50 24 May 03:38:01 03:40:34 15° 348° (NNW) 03:43:06 436.795
BUGSAT 1 24 May 03:44:38 03:47:19 17° 300° (WNW) 03:50:01 437.445
STARS 24 May 03:59:00 04:00:34 12° 54° (NE) 04:02:09 437.465
CUBESAT XI-V 24 May 04:15:51 04:20:08 35° 66° (ENE) 04:24:25 437.345
AO-7 24 May 04:16:17 04:23:50 36° 96° (E) 04:31:20 .
YUBILEINY 24 May 04:16:22 04:24:02 33° 298° (WNW) 04:31:48 435.215
Tancredo 1 24 May 04:17:34 04:20:04 23° 215° (SW) 04:22:33 437.200
ISS 24 May 04:19:49 04:22:48 32° 212° (SSW) 04:25:46 437.550
Gurwin Techsat 1B 24 May 04:21:47 04:26:49 44° 294° (WNW) 04:31:50 435.225
ITAMSAT 1 24 May 04:23:40 04:28:32 38° 97° (E) 04:33:22 435.822/435.867
ITUPSAT 1 24 May 04:31:48 04:35:43 25° 267° (W) 04:39:40 437.325
RS-15 24 May 04:52:09 05:04:27 80° 313° (NW) 05:16:55 29.354- 29.394
KKS-1 24 May 04:52:32 04:56:56 67° 72° (ENE) 05:01:21 437.445
O/OREOS (USA 219) 24 May 05:03:48 05:08:01 37° 108° (ESE) 05:12:15 437.305
Oscar 19 24 May 05:09:39 05:12:19 14° 308° (NW) 05:14:58 437.125/150
BEESAT 24 May 05:10:01 05:11:49 12° 274° (W) 05:13:37 436.000
PCSat 24 May 05:12:43 05:18:13 84° 55° (NE) 05:23:39 145.827
MOZHAYETS 4 24 May 05:16:50 05:19:49 17° 271° (W) 05:22:48
SO-50 24 May 05:20:11 05:22:49 15° 13° (NNE) 05:25:27 436.795
STARS 24 May 05:31:49 05:36:10 75° 72° (ENE) 05:40:32 437.465
AO-85 24 May 05:52:27 05:56:00 28° 119° (ESE) 05:59:26 145.980
CUBESAT XI-V 24 May 05:53:15 05:57:31 33° 265° (W) 06:01:49 437.345
ITAMSAT 1 24 May 06:03:14 06:07:59 37° 296° (WNW) 06:12:44 435.822/435.867
STRAND 1 24 May 06:07:01 06:10:00 16° 53° (NE) 06:12:59 437.568
DOVE 4 24 May 06:07:54 06:10:16 15° 89° (E) 06:12:37 437.250
AO-7 24 May 06:08:52 06:17:07 66° 297° (WNW) 06:25:21 .
XW-2C 24 May 06:28:49 06:30:42 13° 88° (E) 06:32:35 145.795 - 145.815
XW-2F 24 May 06:30:06 06:31:55 13° 88° (E) 06:33:43 145.980 - 146.000
KKS-1 24 May 06:31:13 06:33:58 16° 270° (W) 06:36:42 437.445
NUDT-PHONESAT 24 May 06:38:12 06:39:55 13° 88° (E) 06:41:39 437.300
BEESAT 2 24 May 06:41:20 06:42:50 12° 110° (ESE) 06:44:21 435.950
KAITUO 1B 24 May 06:42:20 06:44:28 14° 89° (E) 06:46:37 145.475/437.950
O/OREOS (USA 219) 24 May 06:43:16 06:47:28 34° 308° (NW) 06:51:40 437.305
PCSat 24 May 06:57:14 07:00:57 19° 254° (WSW) 07:04:38 145.827
SO-50 24 May 07:00:22 07:04:33 35° 37° (NE) 07:08:43 436.795
HO-68 24 May 07:01:08 07:02:51 11° 80° (E) 07:04:33 435.675
LilacSat-2 24 May 07:02:27 07:05:56 30° 95° (E) 07:09:22 437.200
BEESAT 3 24 May 07:05:18 07:09:07 46° 123° (ESE) 07:12:59 437.485
RS-15 24 May 07:07:22 07:19:03 44° 344° (NNW) 07:30:40 29.354- 29.394
M-CUBED/EXP-1 PRIME 24 May 07:07:46 07:10:25 17° 55° (NE) 07:12:57 437.505
STARS 24 May 07:10:44 07:13:03 14° 272° (W) 07:15:21 437.465
AO-85 24 May 07:32:22 07:36:16 42° 318° (NW) 07:40:02 145.980
CUTE-I 24 May 07:37:21 07:42:36 54° 101° (E) 07:47:49 437.470
CUTE 1.7 + AOD 2 24 May 07:37:37 07:39:33 13° 87° (E) 07:41:27 437.475
XW-2D 24 May 07:40:03 07:43:56 76° 103° (ESE) 07:47:47 145.860 - 145.880
STRAND 1 24 May 07:43:20 07:48:26 82° 73° (ENE) 07:53:35 437.568
DOVE 4 24 May 07:44:18 07:48:25 63° 287° (WNW) 07:52:34 437.250
XW-2B 24 May 07:47:55 07:51:49 88° 106° (ESE) 07:55:40 145.730 - 145.750
XW-2A 24 May 07:53:01 07:54:34 12° 90° (E) 07:56:07 145.665 - 145.685
XW-2C 24 May 08:01:29 08:05:20 65° 287° (WNW) 08:09:09 145.795 - 145.815
AO-7 24 May 08:02:36 08:08:29 22° 320° (NW) 08:14:22 .
XW-2F 24 May 08:02:39 08:06:29 66° 286° (WNW) 08:10:17 145.980 - 146.000
NUDT-PHONESAT 24 May 08:10:30 08:14:16 65° 287° (WNW) 08:18:00 437.300
KAITUO 1B 24 May 08:15:05 08:18:51 57° 288° (WNW) 08:22:35 145.475/437.950
BEESAT 2 24 May 08:15:55 08:19:55 86° 128° (SE) 08:24:00 435.950
SEEDS 24 May 08:31:01 08:34:41 28° 94° (E) 08:38:18 437.485
LilacSat-2 24 May 08:36:49 08:40:10 28° 294° (WNW) 08:43:29 437.200
M-CUBED/EXP-1 PRIME 24 May 08:40:15 08:44:30 70° 251° (WSW) 08:48:27 437.505
SO-50 24 May 08:40:49 08:45:09 46° 237° (WSW) 08:49:27 436.795
BEESAT 3 24 May 08:43:19 08:46:52 30° 323° (NW) 08:50:28 437.485
HO-68 24 May 08:45:09 08:52:15 55° 101° (E) 08:59:17 435.675
UNISAT 6 24 May 08:58:33 09:00:56 15° 57° (ENE) 09:03:20 437.425
FO-29 24 May 09:01:44 09:05:28 20° 55° (NE) 09:09:18 435.910
AO-73 24 May 09:08:41 09:11:58 19° 90° (E) 09:15:16 145.935
CUTE 1.7 + AOD 2 24 May 09:11:39 09:15:58 80° 283° (WNW) 09:20:13 437.475
AO-85 24 May 09:15:38 09:17:38 13° 341° (NNW) 09:19:38 145.980
XW-2D 24 May 09:15:44 09:17:36 13° 301° (WNW) 09:19:27 145.860 - 145.880
CUTE-I 24 May 09:17:54 09:22:23 28° 300° (WNW) 09:26:51 437.470
ZACube-1 24 May 09:20:36 09:24:28 27° 93° (E) 09:28:21 437.345
CUBEBUG 2 24 May 09:20:37 09:25:08 66° 102° (ESE) 09:29:45 437.445
RS-15 24 May 09:23:21 09:35:06 45° 17° (NNE) 09:46:30 29.354- 29.394
XW-2B 24 May 09:24:02 09:25:23 12° 302° (WNW) 09:26:44 145.730 - 145.750
XW-2A 24 May 09:24:16 09:27:39 54° 287° (WNW) 09:31:01 145.665 - 145.685
STRAND 1 24 May 09:25:12 09:28:17 16° 272° (W) 09:31:22 437.568
UWE-3 24 May 09:36:48 09:41:18 61° 101° (E) 09:45:52 435.000/436.395/437.385
AAUSAT CUBESAT 2 24 May 09:38:46 09:42:56 66° 102° (ESE) 09:47:02 437.432
PRISM 24 May 09:54:26 09:58:30 57° 71° (ENE) 10:02:34 437.425
BEESAT 2 24 May 09:55:05 09:58:12 21° 330° (NNW) 10:01:21 435.950
TIGRISAT 24 May 10:02:02 10:06:08 47° 69° (ENE) 10:10:19 435.000
SEEDS 24 May 10:06:34 10:10:26 35° 293° (WNW) 10:14:15 437.485
Oscar 11 24 May 10:20:48 10:25:11 72° 102° (ESE) 10:29:32 .
DELFI C3 24 May 10:22:48 10:25:59 23° 93° (E) 10:29:07 145.870
BEESAT 3 24 May 10:24:06 10:25:41 12° 346° (NNW) 10:27:17 437.485
YUBILEINY 24 May 10:26:58 10:30:50 13° 41° (NE) 10:34:40 435.215
UNISAT 6 24 May 10:32:45 10:37:02 82° 256° (WSW) 10:41:26 437.425
HO-68 24 May 10:33:14 10:39:47 39° 302° (WNW) 10:46:18 435.675
NO-84 24 May 10:41:01 10:45:06 40° 141° (SE) 10:49:00 435.350 FM
AO-73 24 May 10:44:06 10:48:33 57° 289° (WNW) 10:53:01 145.935
FO-29 24 May 10:44:52 10:50:02 72° 257° (WSW) 10:55:23 435.910
NANOSAT C BR1 24 May 10:48:08 10:50:14 14° 57° (ENE) 10:52:20 145.865
CUTE 1.7 + AOD 2 24 May 10:49:28 10:51:04 12° 305° (NW) 10:52:40 437.475
POLYITAN 1 24 May 10:49:41 10:52:08 15° 58° (ENE) 10:54:36 437.675
ZACube-1 24 May 10:56:37 11:00:52 41° 291° (WNW) 11:05:09 437.345
QB50P2 24 May 10:57:34 11:00:32 19° 60° (ENE) 11:03:31 145.880/145.840
CUBEBUG 2 24 May 10:58:11 11:01:20 19° 300° (WNW) 11:04:31 437.445
AO-85 24 May 10:59:14 10:59:46 10° 6° (N) 11:00:18 145.980
DUCHIFAT 1 24 May 10:59:50 11:02:21 16° 58° (ENE) 11:04:52 145.980
EO-88 24 May 11:05:34 11:09:09 46° 99° (E) 11:12:42 145.990 - 145.960
AIST 2D 24 May 11:09:15 11:12:24 31° 69° (ENE) 11:15:36 435.315
UWE-3 24 May 11:14:04 11:17:23 20° 299° (WNW) 11:20:43 435.000/436.395/437.385
AAUSAT CUBESAT 2 24 May 11:15:20 11:17:55 16° 300° (WNW) 11:20:30 437.432
BUGSAT 1 24 May 11:30:29 11:31:27 11° 55° (NE) 11:32:26 437.445
PRISM 24 May 11:31:25 11:34:08 17° 269° (W) 11:36:51 437.425
EO-79 24 May 11:34:34 11:38:26 37° 67° (ENE) 11:42:19 145.935-145.965
BEESAT 2 24 May 11:36:30 11:37:27 11° 354° (N) 11:38:23 435.950
RS-15 24 May 11:37:07 11:49:33 82° 48° (NE) 12:01:23 29.354- 29.394
TIGRISAT 24 May 11:39:51 11:43:06 21° 269° (W) 11:46:25 435.000
ESTCUBE 1 24 May 11:48:24 11:51:08 16° 89° (E) 11:53:52 437.505/2401.250
DELFI C3 24 May 11:57:13 12:00:53 37° 291° (WNW) 12:04:30 145.870
LO-87 24 May 11:57:50 12:00:53 26° 95° (E) 12:03:56 145.935 - 145.965
Oscar 11 24 May 11:58:04 12:00:49 17° 301° (WNW) 12:03:33 .
BEESAT 3 24 May 12:03:48 12:05:01 11° 10° (N) 12:06:14 437.485
NO-84 24 May 12:18:24 12:22:39 63° 339° (NNW) 12:26:38 435.350 FM
NANOSAT C BR1 24 May 12:21:10 12:25:21 85° 258° (WSW) 12:29:34 145.865
YUBILEINY 24 May 12:22:05 12:30:32 46° 69° (ENE) 12:38:57 435.215
POLYITAN 1 24 May 12:23:12 12:27:23 74° 257° (WSW) 12:31:37 437.675
HO-68 24 May 12:23:16 12:25:37 12° 325° (NW) 12:27:57 435.675
Gurwin Techsat 1B 24 May 12:30:38 12:33:41 16° 52° (NE) 12:36:45 435.225
QB50P2 24 May 12:31:49 12:35:57 56° 259° (W) 12:40:08 145.880/145.840
DUCHIFAT 1 24 May 12:33:23 12:37:32 71° 258° (WSW) 12:41:43 145.980
FO-29 24 May 12:35:57 12:36:19 10° 278° (W) 12:36:42 435.910
AO-85 24 May 12:38:32 12:41:37 21° 31° (NNE) 12:44:46 145.980
EO-88 24 May 12:40:00 12:42:32 18° 297° (WNW) 12:45:04 145.990 - 145.960
AIST 2D 24 May 12:42:55 12:45:41 21° 267° (W) 12:48:29 435.315
VELOX 1 24 May 12:55:17 12:58:28 19° 91° (E) 13:01:37 145.980
BUGSAT 1 24 May 13:02:06 13:06:06 79° 74° (ENE) 13:10:09 437.445
SPROUT 24 May 13:08:45 13:12:22 26° 94° (E) 13:15:58 437.525
EO-79 24 May 13:10:46 13:14:17 26° 266° (W) 13:17:50 145.935-145.965
Oscar 19 24 May 13:11:13 13:16:07 43° 66° (ENE) 13:21:02 437.125/150
BEESAT 2 24 May 13:14:53 13:16:56 13° 18° (NNE) 13:18:59 435.950
ESTCUBE 1 24 May 13:23:55 13:28:27 71° 287° (WNW) 13:32:56 437.505/2401.250
O/OREOS (USA 219) 24 May 13:29:57 13:33:46 25° 48° (NE) 13:37:32 437.305
AO-7 24 May 13:30:44 13:36:48 23° 41° (NE) 13:42:52 .
50 SAT 24 May 13:31:01 13:33:37 20° 94° (E) 13:36:11 437.505
LO-87 24 May 13:31:17 13:34:17 26° 293° (WNW) 13:37:17 145.935 - 145.965
UKube-1 24 May 13:37:33 13:39:43 14° 89° (E) 13:41:53 .
DX 1 24 May 13:39:11 13:42:24 20° 92° (E) 13:45:34 434.975-435.025
BEESAT 3 24 May 13:40:35 13:43:58 25° 33° (NNE) 13:47:18 437.485
RS-15 24 May 13:50:22 14:00:56 37° 254° (WSW) 14:11:06 29.354- 29.394
NO-84 24 May 13:56:47 14:00:42 40° 360° (N) 14:04:20 435.350 FM
Gurwin Techsat 1B 24 May 14:07:31 14:12:49 77° 71° (ENE) 14:18:10 435.225
ITAMSAT 1 24 May 14:09:15 14:12:34 18° 54° (NE) 14:15:53 435.822/435.867
AO-85 24 May 14:18:28 14:22:27 80° 232° (SW) 14:26:37 145.980
YUBILEINY 24 May 14:19:05 14:27:29 51° 272° (W) 14:35:51 435.215
VELOX 1 24 May 14:30:57 14:35:14 54° 290° (WNW) 14:39:31 145.980
BUGSAT 1 24 May 14:40:38 14:42:02 12° 273° (W) 14:43:26 437.445
SPROUT 24 May 14:44:25 14:48:22 38° 293° (WNW) 14:52:20 437.525
Oscar 19 24 May 14:50:56 14:55:33 32° 265° (W) 15:00:13 437.125/150
BEESAT 2 24 May 14:51:57 14:55:47 38° 40° (NE) 14:59:35 435.950
ESTCUBE 1 24 May 15:02:52 15:04:26 12° 307° (NW) 15:06:00 437.505/2401.250
50 SAT 24 May 15:03:30 15:06:34 31° 292° (WNW) 15:09:37 437.505
O/OREOS (USA 219) 24 May 15:09:02 15:13:28 51° 249° (WSW) 15:17:49 437.305
UKube-1 24 May 15:11:58 15:16:18 76° 286° (WNW) 15:20:35 .
DX 1 24 May 15:14:40 15:18:53 52° 290° (WNW) 15:23:05 434.975-435.025
BEESAT 3 24 May 15:17:53 15:21:53 64° 235° (SW) 15:25:50 437.485
AO-7 24 May 15:20:03 15:28:16 71° 64° (ENE) 15:36:33 .
BEESAT 24 May 15:24:44 15:28:01 18° 90° (E) 15:31:17 436.000
MOZHAYETS 4 24 May 15:29:53 15:31:35 12° 85° (E) 15:33:18
NO-84 24 May 15:34:49 15:38:45 63° 21° (NNE) 15:42:20 435.350 FM
ITAMSAT 1 24 May 15:46:10 15:51:21 90° 122° (ESE) 15:56:34 435.822/435.867
Gurwin Techsat 1B 24 May 15:49:48 15:53:23 18° 271° (W) 15:56:59 435.225
AO-85 24 May 16:01:08 16:02:13 11° 249° (WSW) 16:03:18 145.980
YUBILEINY 24 May 16:20:03 16:21:59 11° 295° (WNW) 16:23:55 435.215
ITUPSAT 1 24 May 16:26:13 16:31:01 60° 102° (ESE) 16:35:46 437.325
BEESAT 2 24 May 16:29:49 16:33:31 34° 240° (WSW) 16:37:11 435.950
UKube-1 24 May 16:50:02 16:51:35 12° 306° (NW) 16:53:07 .
